• In Hungary
  • List of Countries
  • For 7 days
  • Water Temperature
  • Satellite Maps
  • Weather Map
  • News
  • Weather Widgets
  • user-avatar
    Login

    Hourly Weather Fagernes

    Today, 23 January, Tuesday

    Time Temperature Precipitation Wind Pressure Humidity
    00:00 -7°C° 0.2 mm 1 mps 722 mmHg 97%
    01:00 -8°C° 0.2 mm 2 mps 722 mmHg 97%
    02:00 -7°C° 0.4 mm 2 mps 722 mmHg 97%
    03:00 -7°C° 0.4 mm 2 mps 722 mmHg 97%
    04:00 -7°C° 0.4 mm 2 mps 722 mmHg 97%
    05:00 -6°C° 0.4 mm 2 mps 721 mmHg 97%
    06:00 -6°C° 0.4 mm 2 mps 721 mmHg 97%
    07:00 -5°C° 0.4 mm 2 mps 721 mmHg 96%
    08:00 -5°C° 0.2 mm 2 mps 720 mmHg 96%
    09:00 -5°C° 0.2 mm 2 mps 720 mmHg 96%
    10:00 -4°C° 0.2 mm 2 mps 720 mmHg 96%
    11:00 -3°C° 0.2 mm 2 mps 719 mmHg 95%
    12:00 -3°C° 0.2 mm 2 mps 719 mmHg 95%
    13:00 -2°C° 0.2 mm 2 mps 719 mmHg 95%
    14:00 -2°C° 0.1 mm 2 mps 718 mmHg 95%
    15:00 -2°C° 0.1 mm 2 mps 718 mmHg 96%
    16:00 -2°C° 0.1 mm 2 mps 717 mmHg 96%
    17:00 -1°C° 0.4 mm 3 mps 716 mmHg 96%
    18:00 -1°C° 0.4 mm 3 mps 715 mmHg 96%
    19:00 0°C° 0.4 mm 3 mps 714 mmHg 97%
    20:00 -1°C° 0.7 mm 4 mps 713 mmHg 97%
    21:00 0°C° 0.7 mm 4 mps 712 mmHg 96%
    22:00 0°C° 0.7 mm 4 mps 711 mmHg 96%
    23:00 +1°C° 0.6 mm 3 mps 710 mmHg 96%

    Tomorrow, 24 January, Wednesday

    Time Temperature Precipitation Wind Pressure Humidity
    00:00 +1°C° 0.6 mm 3 mps 710 mmHg 97%
    01:00 +2°C° 0.6 mm 2 mps 709 mmHg 97%
    02:00 +2°C° 0.3 mm 2 mps 708 mmHg 96%
    03:00 +1°C° 0.3 mm 3 mps 708 mmHg 95%
    04:00 +1°C° 0.3 mm 3 mps 708 mmHg 95%
    05:00 0°C° 0.2 mm 4 mps 708 mmHg 90%
    06:00 0°C° 0.2 mm 5 mps 708 mmHg 86%
    07:00 -1°C° 0.2 mm 6 mps 709 mmHg 81%
    08:00 -1°C° 0 mm 4 mps 709 mmHg 82%
    09:00 -1°C° 0 mm 3 mps 709 mmHg 84%
    10:00 -3°C° 0 mm 2 mps 710 mmHg 85%
    11:00 -2°C° 0.2 mm 3 mps 709 mmHg 88%
    12:00 -2°C° 0.2 mm 3 mps 708 mmHg 91%
    13:00 -1°C° 0.2 mm 3 mps 707 mmHg 93%
    14:00 -1°C° 0.9 mm 4 mps 705 mmHg 93%
    15:00 -1°C° 0.9 mm 6 mps 704 mmHg 94%
    16:00 +2°C° 0.9 mm 7 mps 703 mmHg 94%
    17:00 0°C° 0.2 mm 7 mps 702 mmHg 90%
    18:00 -1°C° 0.2 mm 7 mps 701 mmHg 87%
    19:00 -2°C° 0.2 mm 7 mps 701 mmHg 83%
    20:00 -1°C° 0.3 mm 8 mps 700 mmHg 82%
    21:00 -2°C° 0.3 mm 10 mps 700 mmHg 81%
    22:00 -1°C° 0.3 mm 11 mps 700 mmHg 80%
    23:00 0°C° 0.2 mm 10 mps 700 mmHg 79%

    Day after tomorrow, 25 January, Thursday

    Time Temperature Precipitation Wind Pressure Humidity
    00:00 -2°C° 0.2 mm 10 mps 701 mmHg 79%
    01:00 -1°C° 0.2 mm 9 mps 701 mmHg 79%
    02:00 -1°C° 0.1 mm 8 mps 702 mmHg 78%
    03:00 -1°C° 0.1 mm 8 mps 702 mmHg 78%
    04:00 -2°C° 0.1 mm 7 mps 703 mmHg 78%
    05:00 -2°C° 0 mm 6 mps 704 mmHg 79%
    06:00 -2°C° 0 mm 6 mps 704 mmHg 79%
    07:00 -2°C° 0 mm 5 mps 705 mmHg 80%
    08:00 -2°C° 0 mm 5 mps 705 mmHg 82%
    09:00 -2°C° 0 mm 4 mps 706 mmHg 83%
    10:00 -2°C° 0 mm 4 mps 707 mmHg 84%
    11:00 -1°C° 0 mm 3 mps 708 mmHg 85%
    12:00 0°C° 0 mm 3 mps 709 mmHg 85%
    13:00 0°C° 0 mm 3 mps 709 mmHg 86%
    14:00 -1°C° 0.1 mm 3 mps 710 mmHg 87%
    15:00 -1°C° 0.1 mm 2 mps 710 mmHg 87%
    16:00 -2°C° 0.1 mm 2 mps 711 mmHg 88%
    17:00 -2°C° 0 mm 2 mps 711 mmHg 88%
    18:00 -3°C° 0 mm 2 mps 712 mmHg 89%
    19:00 -4°C° 0 mm 2 mps 712 mmHg 89%
    20:00 -5°C° 0 mm 2 mps 713 mmHg 89%
    21:00 -5°C° 0 mm 2 mps 713 mmHg 89%
    22:00 -6°C° 0 mm 2 mps 714 mmHg 89%
    23:00 -6°C° 0 mm 2 mps 714 mmHg 89%

    26 January, Friday

    Time Temperature Precipitation Wind Pressure Humidity
    00:00 -7°C° 0 mm 2 mps 714 mmHg 89%
    01:00 -7°C° 0 mm 2 mps 714 mmHg 89%
    02:00 -7°C° 0 mm 2 mps 714 mmHg 89%
    03:00 -7°C° 0 mm 2 mps 715 mmHg 89%
    04:00 -6°C° 0 mm 1 mps 715 mmHg 89%
    05:00 -4°C° 0 mm 1 mps 715 mmHg 89%
    06:00 -4°C° 0 mm 1 mps 715 mmHg 90%
    07:00 -4°C° 0 mm 1 mps 715 mmHg 90%
    08:00 -4°C° 0.1 mm 1 mps 716 mmHg 90%
    09:00 -4°C° 0.1 mm 1 mps 716 mmHg 90%
    10:00 -3°C° 0.1 mm 1 mps 716 mmHg 91%
    11:00 -2°C° 0 mm 1 mps 717 mmHg 91%
    12:00 -2°C° 0 mm 1 mps 717 mmHg 91%
    13:00 -1°C° 0 mm 1 mps 717 mmHg 92%
    14:00 -1°C° 0 mm 1 mps 717 mmHg 91%
    15:00 -2°C° 0 mm 1 mps 717 mmHg 91%
    16:00 -2°C° 0 mm 1 mps 718 mmHg 91%
    17:00 -3°C° 0 mm 1 mps 718 mmHg 90%
    18:00 -3°C° 0 mm 1 mps 718 mmHg 90%
    19:00 -6°C° 0 mm 2 mps 719 mmHg 90%
    20:00 -6°C° 0 mm 2 mps 719 mmHg 89%
    21:00 -7°C° 0 mm 2 mps 720 mmHg 89%
    22:00 -7°C° 0 mm 2 mps 720 mmHg 88%
    23:00 -7°C° 0 mm 2 mps 721 mmHg 88%

    27 January, Saturday

    Time Temperature Precipitation Wind Pressure Humidity
    00:00 -8°C° 0 mm 2 mps 721 mmHg 88%
    01:00 -8°C° 0 mm 2 mps 722 mmHg 88%
    02:00 -7°C° 0 mm 2 mps 722 mmHg 87%
    03:00 -8°C° 0 mm 3 mps 723 mmHg 87%
    04:00 -7°C° 0 mm 3 mps 724 mmHg 87%
    05:00 -8°C° 0 mm 3 mps 724 mmHg 86%
    06:00 -8°C° 0 mm 3 mps 725 mmHg 86%
    07:00 -8°C° 0 mm 3 mps 725 mmHg 85%
    08:00 -8°C° 0 mm 2 mps 726 mmHg 84%
    09:00 -8°C° 0 mm 2 mps 727 mmHg 83%
    10:00 -8°C° 0 mm 2 mps 727 mmHg 83%
    11:00 -7°C° 0 mm 2 mps 727 mmHg 82%
    12:00 -6°C° 0 mm 2 mps 728 mmHg 82%
    13:00 -3°C° 0 mm 1 mps 728 mmHg 82%
    14:00 -4°C° 0 mm 1 mps 728 mmHg 80%
    15:00 -6°C° 0 mm 1 mps 728 mmHg 79%
    16:00 -7°C° 0 mm 1 mps 728 mmHg 78%
    17:00 -7°C° 0 mm 1 mps 727 mmHg 78%
    18:00 -8°C° 0 mm 1 mps 727 mmHg 78%
    19:00 -8°C° 0 mm 1 mps 727 mmHg 78%
    20:00 -7°C° 0 mm 1 mps 727 mmHg 80%
    21:00 -7°C° 0 mm 1 mps 726 mmHg 82%
    22:00 -7°C° 0 mm 1 mps 726 mmHg 85%
    23:00 -8°C° 0.1 mm 2 mps 725 mmHg 88%

    28 January, Sunday

    Time Temperature Precipitation Wind Pressure Humidity
    00:00 -8°C° 0.1 mm 2 mps 724 mmHg 92%
    01:00 -8°C° 0.1 mm 2 mps 723 mmHg 95%
    02:00 -7°C° 0.1 mm 2 mps 723 mmHg 95%
    03:00 -7°C° 0.1 mm 2 mps 722 mmHg 95%
    04:00 -7°C° 0.1 mm 2 mps 721 mmHg 95%
    05:00 -7°C° 0 mm 2 mps 721 mmHg 94%
    06:00 -7°C° 0 mm 2 mps 721 mmHg 93%
    07:00 -7°C° 0 mm 2 mps 721 mmHg 92%
    08:00 -6°C° 0 mm 2 mps 721 mmHg 91%
    09:00 -6°C° 0 mm 2 mps 721 mmHg 90%
    10:00 -5°C° 0 mm 2 mps 721 mmHg 90%
    11:00 -4°C° 0 mm 2 mps 721 mmHg 90%
    12:00 -4°C° 0 mm 3 mps 721 mmHg 90%
    13:00 -1°C° 0 mm 3 mps 721 mmHg 90%
    14:00 -2°C° 0 mm 2 mps 721 mmHg 90%
    15:00 -2°C° 0 mm 2 mps 720 mmHg 90%
    16:00 -2°C° 0 mm 2 mps 720 mmHg 91%
    17:00 -2°C° 0 mm 2 mps 720 mmHg 90%
    18:00 -3°C° 0 mm 2 mps 720 mmHg 90%
    19:00 -3°C° 0 mm 2 mps 720 mmHg 90%
    20:00 -2°C° 0 mm 2 mps 719 mmHg 90%
    21:00 -2°C° 0 mm 2 mps 719 mmHg 90%
    22:00 -2°C° 0 mm 2 mps 719 mmHg 89%
    23:00 -2°C° 0.1 mm 2 mps 718 mmHg 90%
    Show more